When you browse on this site, cookies collect data to enhance your experience and personalize the content and advertising you see.
Visit our Privacy Policy to learn more. By continuing to use the site, you agree to this use of cookies and data.
  • In Latvia
  • List of Countries
  • For 7 days
  • Water Temperature
  • Satellite Maps
  • Weather Map
  • Weather Widgets
  • user-avatar
    Login

    Hourly Weather Novo-Aleksandrovka

    Today, 22 February, Friday

    Time Temperature Precipitation Wind Pressure Humidity
    00:00 -14°C° 0.1 mm 6 mps 743 mmHg 78%
    01:00 -14°C° 0.1 mm 6 mps 744 mmHg 79%
    02:00 -14°C° 0 mm 6 mps 744 mmHg 80%
    03:00 -14°C° 0.2 mm 6 mps 745 mmHg 80%
    04:00 -14°C° 0.2 mm 7 mps 745 mmHg 80%
    05:00 -14°C° 0.2 mm 7 mps 746 mmHg 80%
    06:00 -14°C° 0.1 mm 7 mps 746 mmHg 79%
    07:00 -14°C° 0.1 mm 7 mps 747 mmHg 77%
    08:00 -14°C° 0 mm 7 mps 748 mmHg 75%
    09:00 -15°C° 0 mm 8 mps 749 mmHg 73%
    10:00 -13°C° 0 mm 8 mps 749 mmHg 71%
    11:00 -13°C° 0 mm 8 mps 750 mmHg 69%
    12:00 -12°C° 0 mm 8 mps 751 mmHg 69%
    13:00 -12°C° 0 mm 7 mps 752 mmHg 68%
    14:00 -11°C° 0 mm 7 mps 752 mmHg 68%
    15:00 -12°C° 0 mm 7 mps 753 mmHg 70%
    16:00 -11°C° 0 mm 6 mps 754 mmHg 72%
    17:00 -11°C° 0 mm 5 mps 755 mmHg 75%
    18:00 -11°C° 0 mm 5 mps 756 mmHg 77%
    19:00 -11°C° 0 mm 5 mps 757 mmHg 79%
    20:00 -12°C° 0 mm 5 mps 757 mmHg 81%
    21:00 -12°C° 0 mm 5 mps 758 mmHg 84%
    22:00 -12°C° 0 mm 4 mps 758 mmHg 86%
    23:00 -14°C° 0 mm 4 mps 759 mmHg 89%

    Tomorrow, 23 February, Saturday

    Time Temperature Precipitation Wind Pressure Humidity
    00:00 -15°C° 0 mm 4 mps 759 mmHg 89%
    01:00 -14°C° 0 mm 3 mps 760 mmHg 89%
    02:00 -15°C° 0 mm 3 mps 760 mmHg 89%
    03:00 -15°C° 0 mm 3 mps 760 mmHg 88%
    04:00 -15°C° 0 mm 3 mps 760 mmHg 86%
    05:00 -14°C° 0 mm 2 mps 760 mmHg 85%
    06:00 -14°C° 0 mm 2 mps 760 mmHg 83%
    07:00 -13°C° 0 mm 2 mps 760 mmHg 80%
    08:00 -12°C° 0 mm 2 mps 760 mmHg 78%
    09:00 -12°C° 0 mm 3 mps 759 mmHg 73%
    10:00 -9°C° 0 mm 3 mps 759 mmHg 68%
    11:00 -9°C° 0 mm 4 mps 758 mmHg 63%
    12:00 -9°C° 0.1 mm 4 mps 757 mmHg 69%
    13:00 -9°C° 0.1 mm 4 mps 757 mmHg 74%
    14:00 -10°C° 0.1 mm 5 mps 756 mmHg 80%
    15:00 -10°C° 0.7 mm 5 mps 755 mmHg 83%
    16:00 -8°C° 0.7 mm 5 mps 754 mmHg 87%
    17:00 -8°C° 0.7 mm 5 mps 753 mmHg 91%
    18:00 -8°C° 0.6 mm 5 mps 753 mmHg 91%
    19:00 -7°C° 0.6 mm 5 mps 752 mmHg 90%
    20:00 -7°C° 0.6 mm 4 mps 751 mmHg 89%
    21:00 -4°C° 0.3 mm 4 mps 751 mmHg 90%
    22:00 -3°C° 0.3 mm 4 mps 751 mmHg 90%
    23:00 -2°C° 0.3 mm 4 mps 751 mmHg 90%

    Day after tomorrow, 24 February, Sunday

    Time Temperature Precipitation Wind Pressure Humidity
    00:00 -2°C° 0.3 mm 4 mps 751 mmHg 91%
    01:00 -1°C° 0.3 mm 4 mps 750 mmHg 91%
    02:00 -1°C° 0.3 mm 4 mps 750 mmHg 91%
    03:00 -1°C° 0 mm 4 mps 750 mmHg 92%
    04:00 -1°C° 0 mm 4 mps 751 mmHg 92%
    05:00 0°C° 0 mm 4 mps 751 mmHg 93%
    06:00 0°C° 0 mm 4 mps 751 mmHg 93%
    07:00 -1°C° 0 mm 4 mps 751 mmHg 94%
    08:00 -1°C° 0 mm 4 mps 751 mmHg 94%
    09:00 0°C° 0 mm 4 mps 751 mmHg 94%
    10:00 0°C° 0 mm 4 mps 752 mmHg 95%
    11:00 0°C° 0 mm 4 mps 752 mmHg 95%
    12:00 +1°C° 0 mm 3 mps 752 mmHg 95%
    13:00 +1°C° 0 mm 3 mps 752 mmHg 95%
    14:00 +1°C° 0 mm 3 mps 752 mmHg 95%
    15:00 +2°C° 0 mm 2 mps 752 mmHg 95%
    16:00 +1°C° 0 mm 2 mps 752 mmHg 94%
    17:00 +1°C° 0 mm 2 mps 752 mmHg 94%
    18:00 +1°C° 0 mm 2 mps 752 mmHg 95%
    19:00 +1°C° 0 mm 2 mps 752 mmHg 95%
    20:00 +1°C° 0 mm 2 mps 751 mmHg 95%
    21:00 +1°C° 0 mm 2 mps 751 mmHg 95%
    22:00 +1°C° 0 mm 2 mps 750 mmHg 95%
    23:00 +1°C° 0 mm 2 mps 750 mmHg 95%

    25 February, Monday

    Time Temperature Precipitation Wind Pressure Humidity
    00:00 0°C° 0.3 mm 3 mps 749 mmHg 95%
    01:00 0°C° 0.3 mm 3 mps 749 mmHg 94%
    02:00 0°C° 0.3 mm 3 mps 748 mmHg 94%
    03:00 0°C° 0.2 mm 4 mps 748 mmHg 93%
    04:00 0°C° 0.2 mm 4 mps 748 mmHg 93%
    05:00 0°C° 0.2 mm 5 mps 747 mmHg 92%
    06:00 0°C° 0 mm 5 mps 747 mmHg 91%
    07:00 0°C° 0 mm 5 mps 747 mmHg 89%
    08:00 -1°C° 0 mm 5 mps 747 mmHg 88%
    09:00 0°C° 0 mm 5 mps 747 mmHg 87%
    10:00 0°C° 0 mm 5 mps 747 mmHg 86%
    11:00 0°C° 0 mm 5 mps 747 mmHg 85%
    12:00 0°C° 0 mm 5 mps 747 mmHg 85%
    13:00 -2°C° 0 mm 6 mps 746 mmHg 84%
    14:00 -2°C° 0 mm 6 mps 746 mmHg 84%
    15:00 -2°C° 0.1 mm 6 mps 745 mmHg 84%
    16:00 -2°C° 0.1 mm 6 mps 745 mmHg 83%
    17:00 -1°C° 0.1 mm 5 mps 745 mmHg 83%
    18:00 -1°C° 0 mm 5 mps 744 mmHg 82%
    19:00 -2°C° 0 mm 6 mps 744 mmHg 82%
    20:00 -2°C° 0 mm 6 mps 744 mmHg 81%
    21:00 -2°C° 0.1 mm 6 mps 744 mmHg 81%
    22:00 -2°C° 0.1 mm 6 mps 743 mmHg 81%
    23:00 -2°C° 0.1 mm 6 mps 743 mmHg 81%

    26 February, Tuesday

    Time Temperature Precipitation Wind Pressure Humidity
    00:00 -2°C° 0 mm 5 mps 743 mmHg 83%
    01:00 -2°C° 0 mm 5 mps 743 mmHg 85%
    02:00 -2°C° 0 mm 5 mps 743 mmHg 87%
    03:00 -3°C° 0 mm 4 mps 743 mmHg 87%
    04:00 -2°C° 0 mm 3 mps 742 mmHg 87%
    05:00 -2°C° 0 mm 3 mps 742 mmHg 88%
    06:00 -2°C° 0 mm 2 mps 741 mmHg 89%
    07:00 -2°C° 0 mm 2 mps 741 mmHg 90%
    08:00 -2°C° 0 mm 2 mps 740 mmHg 91%
    09:00 -2°C° 0.1 mm 2 mps 740 mmHg 90%
    10:00 -2°C° 0.1 mm 2 mps 739 mmHg 89%
    11:00 -1°C° 0.1 mm 2 mps 738 mmHg 89%
    12:00 +1°C° 0.1 mm 1 mps 738 mmHg 89%
    13:00 +1°C° 0.1 mm 1 mps 738 mmHg 89%
    14:00 +1°C° 0.1 mm 1 mps 737 mmHg 89%
    15:00 +1°C° 0 mm 1 mps 737 mmHg 91%
    16:00 0°C° 0 mm 1 mps 738 mmHg 92%
    17:00 0°C° 0 mm 1 mps 738 mmHg 94%
    18:00 0°C° 0 mm 1 mps 738 mmHg 93%
    19:00 -2°C° 0 mm 2 mps 739 mmHg 93%
    20:00 -2°C° 0 mm 2 mps 740 mmHg 93%
    21:00 -2°C° 0 mm 2 mps 740 mmHg 93%
    22:00 -2°C° 0 mm 2 mps 741 mmHg 92%
    23:00 -2°C° 0 mm 3 mps 742 mmHg 91%

    27 February, Wednesday

    Time Temperature Precipitation Wind Pressure Humidity
    00:00 -2°C° 0 mm 3 mps 742 mmHg 91%
    01:00 -2°C° 0 mm 3 mps 743 mmHg 91%
    02:00 -2°C° 0 mm 3 mps 744 mmHg 90%
    03:00 -4°C° 0 mm 3 mps 744 mmHg 91%
    04:00 -4°C° 0 mm 3 mps 744 mmHg 92%
    05:00 -4°C° 0 mm 3 mps 745 mmHg 93%
    06:00 -4°C° 0 mm 3 mps 745 mmHg 91%
    07:00 -4°C° 0 mm 4 mps 746 mmHg 90%
    08:00 -4°C° 0 mm 4 mps 747 mmHg 88%
    09:00 -4°C° 0 mm 4 mps 747 mmHg 86%
    10:00 -4°C° 0 mm 4 mps 747 mmHg 84%
    11:00 -4°C° 0 mm 3 mps 747 mmHg 82%
    12:00 -4°C° 0 mm 3 mps 747 mmHg 80%
    13:00 -2°C° 0 mm 3 mps 746 mmHg 79%
    14:00 -2°C° 0 mm 3 mps 746 mmHg 78%
    15:00 -2°C° 0 mm 3 mps 746 mmHg 81%
    16:00 -3°C° 0 mm 2 mps 745 mmHg 85%
    17:00 -4°C° 0 mm 2 mps 745 mmHg 89%
    18:00 -4°C° 0 mm 2 mps 744 mmHg 90%
    19:00 -5°C° 0 mm 3 mps 743 mmHg 90%
    20:00 -5°C° 0 mm 3 mps 742 mmHg 91%
    21:00 -5°C° 0 mm 4 mps 741 mmHg 90%
    22:00 -4°C° 0 mm 4 mps 740 mmHg 90%
    23:00 -4°C° 0 mm 4 mps 739 mmHg 90%
    Show more